TimeMDT,TemperatureF,Dew PointF,Humidity,Sea Level PressureIn,VisibilityMPH,Wind Direction,Wind SpeedMPH,Gust SpeedMPH,PrecipitationIn,Events,Conditions,WindDirDegrees,DateUTC
12:53 AM,32.0,16.0,52,30.31,10.0,ENE,8.1,-,N/A,,Clear,70,2012-10-06 06:53:00
1:53 AM,32.0,15.1,50,30.32,10.0,NE,10.4,-,N/A,,Clear,40,2012-10-06 07:53:00
2:53 AM,30.0,15.1,54,30.33,10.0,NE,6.9,-,N/A,,Clear,50,2012-10-06 08:53:00
3:53 AM,26.1,15.1,63,30.35,10.0,ENE,6.9,-,N/A,,Clear,70,2012-10-06 09:53:00
4:53 AM,25.0,15.1,66,30.35,10.0,ENE,6.9,-,N/A,,Clear,70,2012-10-06 10:53:00
5:53 AM,24.1,15.1,69,30.35,10.0,ENE,6.9,-,N/A,,Clear,60,2012-10-06 11:53:00
6:53 AM,21.9,14.0,72,30.38,10.0,ENE,4.6,-,N/A,,Clear,60,2012-10-06 12:53:00
7:53 AM,21.9,14.0,72,30.39,10.0,ENE,6.9,-,N/A,,Clear,70,2012-10-06 13:53:00
8:53 AM,23.0,14.0,68,30.41,10.0,NNE,3.5,-,N/A,,Clear,30,2012-10-06 14:53:00
9:53 AM,30.0,16.0,56,30.39,10.0,ENE,8.1,-,N/A,,Clear,60,2012-10-06 15:53:00
10:53 AM,36.0,16.0,44,30.37,10.0,NE,8.1,-,N/A,,Clear,50,2012-10-06 16:53:00
11:53 AM,39.9,12.0,32,30.33,10.0,Calm,Calm,-,N/A,,Clear,0,2012-10-06 17:53:00
12:53 PM,44.1,8.1,23,30.30,10.0,Variable,4.6,-,N/A,,Clear,0,2012-10-06 18:53:00
1:53 PM,46.9,5.0,18,30.26,10.0,Calm,Calm,-,N/A,,Clear,0,2012-10-06 19:53:00
2:53 PM,48.9,1.0,14,30.23,10.0,NE,4.6,-,N/A,,Clear,50,2012-10-06 20:53:00
3:53 PM,51.1,-8.0,9,30.22,10.0,Calm,Calm,-,N/A,,Clear,0,2012-10-06 21:53:00
4:53 PM,52.0,-8.0,8,30.20,10.0,Calm,Calm,-,N/A,,Clear,0,2012-10-06 22:53:00
5:53 PM,52.0,-7.1,9,30.20,10.0,Calm,Calm,-,N/A,,Clear,0,2012-10-06 23:53:00
6:53 PM,48.0,-5.1,11,30.22,10.0,SW,4.6,-,N/A,,Clear,220,2012-10-07 00:53:00
7:53 PM,46.0,-4.0,12,30.24,10.0,Calm,Calm,-,N/A,,Clear,0,2012-10-07 01:53:00
8:53 PM,39.9,6.1,25,30.27,10.0,NE,8.1,-,N/A,,Clear,40,2012-10-07 02:53:00
9:53 PM,33.1,5.0,31,30.28,10.0,NE,3.5,-,N/A,,Clear,40,2012-10-07 03:53:00
10:53 PM,32.0,3.9,31,30.28,10.0,NE,4.6,-,N/A,,Clear,40,2012-10-07 04:53:00
11:53 PM,30.9,6.1,35,30.26,10.0,NNE,3.5,-,N/A,,Clear,30,2012-10-07 05:53:00